Date,TemperatureHighF,TemperatureAvgF,TemperatureLowF,DewpointHighF,DewpointAvgF,DewpointLowF,HumidityHigh,HumidityAvg,HumidityLow,PressureMaxIn,PressureMinIn,WindSpeedMaxMPH,WindSpeedAvgMPH,GustSpeedMaxMPH,PrecipitationSumIn
2013-2-1,28.0,23.1,15.0,26.0,11.2,3.9,100,61,36,30.18,29.57,14,2,25,0.00
2013-2-2,28.0,19.9,11.0,25.0,13.6,4.8,100,78,42,30.20,29.77,3,0,0,0.00
2013-2-3,34.0,26.9,19.0,28.4,24.3,18.9,100,90,69,29.76,29.54,5,0,0,0.04
2013-2-4,37.0,27.4,20.0,22.1,15.3,9.4,81,61,37,29.87,29.62,4,0,12,0.00
2013-2-5,39.0,31.7,27.0,27.9,24.7,20.5,88,76,60,29.66,29.51,0,0,0,0.00
2013-2-6,43.0,33.5,25.0,30.0,25.1,20.0,97,73,43,30.10,29.66,6,0,12,0.00
2013-2-7,37.0,29.9,22.0,28.4,23.2,19.0,100,77,54,30.19,29.92,3,0,0,0.00
2013-2-8,38.0,34.1,31.0,37.5,31.6,22.7,100,91,67,29.92,29.43,12,1,19,0.22
2013-2-9,41.0,30.3,23.0,23.4,16.6,13.4,73,58,36,30.16,29.63,8,1,19,0.00
2013-2-10,47.0,31.3,16.0,23.3,15.9,7.4,100,59,21,30.28,29.93,3,0,0,0.00
2013-2-11,49.0,41.1,32.0,48.7,39.9,24.0,100,96,59,29.94,29.30,6,0,0,0.44
2013-2-12,55.0,45.0,33.0,34.0,26.9,22.0,86,51,29,29.67,29.40,10,1,14,0.00
2013-2-13,47.0,33.9,25.0,35.3,29.0,24.7,100,84,47,29.69,29.30,4,0,0,0.10
2013-2-14,49.0,36.2,29.0,32.0,28.6,22.7,100,78,38,29.73,29.48,4,0,0,0.21
2013-2-15,59.0,40.7,29.0,37.8,30.7,22.4,100,75,26,29.75,29.43,7,0,14,0.15
2013-2-16,38.0,32.6,28.0,34.0,28.1,16.9,100,84,60,29.72,29.55,5,0,0,0.03
2013-2-17,31.0,24.9,20.0,18.9,12.4,7.1,80,60,37,29.98,29.56,9,1,18,0.00
2013-2-18,43.0,28.1,17.0,14.8,8.8,3.0,69,47,21,30.15,29.85,7,0,0,0.00
2013-2-19,41.0,35.2,27.0,40.7,29.4,14.6,100,81,54,29.90,29.36,5,0,12,0.18
2013-2-20,36.0,28.8,21.0,21.8,14.4,9.0,65,55,36,29.93,29.54,12,2,16,0.00
2013-2-21,39.0,27.6,20.0,17.3,13.7,10.2,73,57,35,30.08,29.80,7,1,16,0.00
2013-2-22,33.0,28.6,25.0,29.0,22.7,16.3,100,79,58,30.12,29.94,3,0,0,0.03
2013-2-23,46.0,36.5,29.0,44.9,36.3,29.0,100,99,92,29.94,29.47,3,0,0,0.09
2013-2-24,50.0,39.2,28.0,40.0,29.8,20.0,100,73,35,29.85,29.44,7,1,17,0.01
2013-2-25,49.0,34.9,23.0,27.2,21.5,14.3,95,62,33,29.96,29.73,4,0,0,0.00
2013-2-26,40.0,33.2,24.0,40.0,32.0,23.8,100,96,68,29.98,29.28,7,0,14,0.82
2013-2-27,55.0,44.5,37.0,41.0,36.2,30.7,100,75,46,29.33,29.15,7,0,0,0.09
2013-2-28,48.0,40.4,36.0,37.3,28.8,21.7,93,64,37,29.40,29.24,7,1,12,0.01